Flag for Austria Weather past 2 weeks in Wals-Siezenheim, Salzburg, Austria

Now
72 °F

Sprinkles. Broken clouds.


Feels Like: 75 °F
Forecast: 57 / 67 °F
Wind: 13 mph from Northwest

Location: Salzburg-Flughafen

Current Time: Aug 29, 2014 at 4:55:03 PM

Latest Report: Aug 29, 2014 at 4:20 PM


Visibility: N/A

Pressure: 30.07 "Hg

Humidity: 69%

Dew point: 61 °F

Location of Wals-SiezenheimLocation

Historic Weather in Wals-Siezenheim — Graph

°F

Wals-Siezenheim temperature yesterday

Maximum temperature yesterday: 72 °F (at 2:50 PM)
Minimum temperature yesterday: 46 °F (at 3:50 AM)
Average temperature yesterday: 59 °F

Past Weeks' High & Low Weather Summary

 TemperatureHumidityPressure
High75 °F (Aug 29, 11:50 AM)100% (Aug 15, 10:50 PM)30.18 "Hg (Aug 15, 10:50 PM)
Low46 °F (Aug 25, 4:50 AM)41% (Aug 17, 3:50 PM)29.77 "Hg (Aug 26, 7:50 AM)
Average59 °F80%30.01 "Hg
* Reported Aug 14 3:20 PM — Aug 29 3:50 PM, Wals-Siezenheim, Weather by CustomWeather, © 2014

Note: Actual official high and low records may vary slightly from our data, if they occured in-between our weather recording intervals... More about our weather records

Advertising

Wals-Siezenheim weather history for previous 24 hours

 ConditionsComfort  
Time TempWeatherWind HumidityBarometerVisibility
3:50 PM
Aug 29
73 °FBroken clouds.7 mph61%30.07 "HgN/A
3:20 PM75 °FBroken clouds.6 mph57%30.07 "HgN/A
2:50 PM75 °FBroken clouds.6 mph57%30.07 "HgN/A
2:20 PM75 °FBroken clouds.5 mph54%30.07 "HgN/A
1:50 PM75 °FBroken clouds.6 mph54%30.07 "HgN/A
1:20 PM75 °FPartly sunny.7 mph54%30.07 "HgN/A
12:50 PM75 °FBroken clouds.6 mph50%30.07 "HgN/A
12:20 PM75 °FBroken clouds.2 mph50%30.07 "HgN/A
11:50 AM75 °FBroken clouds.5 mph50%30.07 "HgN/A
11:20 AM73 °FBroken clouds.7 mph61%30.07 "HgN/A
10:50 AM72 °FBroken clouds.6 mph61%30.07 "HgN/A
10:20 AM70 °FPartly sunny.8 mph64%30.07 "HgN/A
9:50 AM66 °FPartly sunny.8 mph68%30.07 "HgN/A
9:20 AM64 °FPartly sunny.12 mph73%30.07 "HgN/A
8:50 AM63 °FBroken clouds.10 mph77%30.09 "HgN/A
8:20 AM61 °FBroken clouds.13 mph77%30.09 "HgN/A
7:50 AM61 °FBroken clouds.9 mph77%30.09 "HgN/A
7:20 AM59 °FPassing clouds.10 mph82%30.09 "HgN/A
6:50 AM57 °FPassing clouds.10 mph88%30.09 "HgN/A
6:20 AM57 °FPassing clouds.9 mph88%30.09 "HgN/A
5:50 AM57 °FPassing clouds.10 mph88%30.09 "HgN/A
5:20 AM57 °FPassing clouds.10 mph88%30.09 "HgN/A
4:50 AM57 °FPassing clouds.10 mph88%30.09 "HgN/A
4:20 AM59 °FPassing clouds.8 mph82%30.09 "HgN/A
3:50 AM57 °FPassing clouds.7 mph88%30.09 "HgN/A
3:20 AM59 °FPassing clouds.7 mph82%30.09 "HgN/A
2:50 AM59 °FOvercast.7 mph82%30.09 "HgN/A
2:20 AM59 °FPartly cloudy.6 mph82%30.09 "HgN/A
1:50 AM57 °FPassing clouds.5 mph88%30.09 "HgN/A
1:20 AM57 °FPassing clouds.3 mph88%30.09 "HgN/A
12:50 AM59 °FPassing clouds.6 mph88%30.09 "HgN/A
12:20 AM59 °FPassing clouds.5 mph88%30.09 "HgN/A
11:50 PM
Aug 28
59 °FPassing clouds.6 mph88%30.09 "HgN/A
11:20 PM59 °FPassing clouds.3 mph88%30.09 "HgN/A
10:50 PM59 °FPassing clouds.6 mph88%30.09 "HgN/A
10:20 PM57 °FPartly cloudy.5 mph94%30.09 "HgN/A
9:50 PM59 °FPassing clouds.5 mph88%30.09 "HgN/A
9:20 PM61 °FPassing clouds.6 mph83%30.09 "HgN/A
8:50 PM61 °FScattered clouds.2 mph83%30.09 "HgN/A
8:20 PM63 °FPassing clouds.2 mph83%30.07 "HgN/A
7:50 PM66 °FScattered clouds.2 mph68%30.07 "HgN/A
7:20 PM68 °FScattered clouds.5 mph60%30.07 "HgN/A
6:50 PM70 °FScattered clouds.6 mph57%30.07 "HgN/A
6:20 PM72 °FScattered clouds.6 mph53%30.07 "HgN/A
5:50 PM72 °FScattered clouds.6 mph53%30.07 "HgN/A
5:20 PM72 °FScattered clouds.6 mph53%30.07 "HgN/A
4:50 PM72 °FPassing clouds.6 mph50%30.07 "HgN/A
4:20 PM72 °FPassing clouds.6 mph57%30.07 "HgN/A
Weather by CustomWeather, © 2014

See weather overviewHow to use our weather pages